Time,TemperatureF,DewpointF,PressureIn,WindDirection,WindDirectionDegrees,WindSpeedMPH,WindSpeedGustMPH,Humidity,HourlyPrecipIn,Conditions,Clouds,dailyrainin,SoftwareType,DateUTC
2013-09-14 00:04:00,62.6,55.2,30.01,South,180,0.0,0.0,77,0.00,,,0.00,meteobridge,2013-09-14 04:04:00,
2013-09-14 00:15:00,62.1,55.8,30.01,South,180,0.0,0.0,80,0.00,,,0.00,meteobridge,2013-09-14 04:15:00,
2013-09-14 00:26:00,61.7,55.4,30.01,South,180,0.0,0.0,80,0.00,,,0.00,meteobridge,2013-09-14 04:26:00,
2013-09-14 00:36:00,61.0,55.4,30.01,South,180,0.0,0.0,82,0.00,,,0.00,meteobridge,2013-09-14 04:36:00,
2013-09-14 00:46:00,60.6,55.4,30.01,South,180,0.0,0.0,83,0.00,,,0.00,meteobridge,2013-09-14 04:46:00,
2013-09-14 00:56:00,60.1,55.2,30.01,South,180,0.0,0.0,84,0.00,,,0.00,meteobridge,2013-09-14 04:56:00,
2013-09-14 01:07:00,59.5,55.0,30.01,South,180,0.0,0.0,85,0.00,,,0.00,meteobridge,2013-09-14 05:07:00,
2013-09-14 01:17:00,59.2,55.0,30.01,South,180,0.0,0.0,86,0.00,,,0.00,meteobridge,2013-09-14 05:17:00,
2013-09-14 01:27:00,58.8,55.0,30.01,South,180,0.0,0.0,87,0.00,,,0.00,meteobridge,2013-09-14 05:27:00,
2013-09-14 01:38:00,58.6,55.0,30.01,South,180,0.0,0.0,88,0.00,,,0.00,meteobridge,2013-09-14 05:38:00,
2013-09-14 01:48:00,58.5,54.9,30.01,South,180,0.0,0.0,88,0.00,,,0.00,meteobridge,2013-09-14 05:48:00,
2013-09-14 01:58:00,58.1,54.5,30.02,South,180,0.0,0.0,88,0.00,,,0.00,meteobridge,2013-09-14 05:58:00,
2013-09-14 02:09:00,57.6,54.3,30.02,South,180,0.0,0.0,89,0.00,,,0.00,meteobridge,2013-09-14 06:09:00,
2013-09-14 02:19:00,57.4,54.1,30.02,South,180,0.0,0.0,89,0.00,,,0.00,meteobridge,2013-09-14 06:19:00,
2013-09-14 02:30:00,57.2,54.3,30.02,South,180,0.0,0.0,90,0.00,,,0.00,meteobridge,2013-09-14 06:30:00,
2013-09-14 02:42:00,56.8,54.3,30.01,South,180,0.0,-999.0,91,0.00,,,0.00,meteobridge,2013-09-14 06:42:00,
2013-09-14 02:53:00,56.7,54.3,30.02,South,180,0.0,-999.0,92,0.00,,,0.00,meteobridge,2013-09-14 06:53:00,
2013-09-14 03:03:00,56.5,54.1,30.02,South,180,0.0,0.0,92,0.00,,,0.00,meteobridge,2013-09-14 07:03:00,
2013-09-14 03:14:00,56.3,54.3,30.02,South,180,0.0,0.0,93,0.00,,,0.00,meteobridge,2013-09-14 07:14:00,
2013-09-14 03:24:00,56.1,54.1,30.02,South,180,0.0,0.0,93,0.00,,,0.00,meteobridge,2013-09-14 07:24:00,
2013-09-14 03:35:00,55.9,54.0,30.02,South,180,0.0,0.0,93,0.00,,,0.00,meteobridge,2013-09-14 07:35:00,
2013-09-14 03:45:00,55.8,53.8,30.02,South,180,0.0,0.0,93,0.00,,,0.00,meteobridge,2013-09-14 07:45:00,
2013-09-14 03:56:00,55.6,54.0,30.02,South,180,0.0,0.0,94,0.00,,,0.00,meteobridge,2013-09-14 07:56:00,
2013-09-14 04:06:00,55.6,54.0,30.02,South,180,0.0,0.0,94,0.00,,,0.00,meteobridge,2013-09-14 08:06:00,
2013-09-14 04:17:00,55.2,53.6,30.02,South,180,0.0,0.0,94,0.00,,,0.00,meteobridge,2013-09-14 08:17:00,
2013-09-14 04:28:00,55.0,53.4,30.02,South,180,0.0,0.0,94,0.00,,,0.00,meteobridge,2013-09-14 08:28:00,
2013-09-14 04:39:00,55.0,53.6,30.02,South,180,0.0,0.0,95,0.00,,,0.00,meteobridge,2013-09-14 08:39:00,
2013-09-14 04:52:00,54.7,53.2,30.02,South,180,0.0,-999.0,95,0.00,,,0.00,meteobridge,2013-09-14 08:52:00,
2013-09-14 05:02:00,54.5,53.1,30.02,South,180,0.0,0.0,95,0.00,,,0.00,meteobridge,2013-09-14 09:02:00,
2013-09-14 05:12:00,54.5,53.1,30.02,South,180,0.0,0.0,95,0.00,,,0.00,meteobridge,2013-09-14 09:12:00,
2013-09-14 05:24:00,54.3,52.9,30.02,South,180,0.0,-999.0,95,0.00,,,0.00,meteobridge,2013-09-14 09:24:00,
2013-09-14 05:34:00,54.1,53.1,30.02,South,180,0.0,0.0,96,0.00,,,0.00,meteobridge,2013-09-14 09:34:00,
2013-09-14 05:45:00,54.0,52.9,30.02,South,180,0.0,0.0,96,0.00,,,0.00,meteobridge,2013-09-14 09:45:00,
2013-09-14 05:56:00,54.0,52.9,30.02,South,180,0.0,0.0,96,0.00,,,0.00,meteobridge,2013-09-14 09:56:00,
2013-09-14 06:06:00,53.8,52.7,30.03,South,180,0.0,0.0,96,0.00,,,0.00,meteobridge,2013-09-14 10:06:00,
2013-09-14 06:16:00,53.6,52.5,30.03,South,180,0.0,0.0,96,0.00,,,0.00,meteobridge,2013-09-14 10:16:00,
2013-09-14 06:27:00,53.6,52.5,30.04,South,180,0.0,0.0,96,0.00,,,0.00,meteobridge,2013-09-14 10:27:00,
2013-09-14 06:37:00,53.4,52.5,30.04,South,180,0.0,0.0,97,0.00,,,0.00,meteobridge,2013-09-14 10:37:00,
2013-09-14 06:47:00,53.4,52.9,30.05,South,180,0.0,0.0,98,0.00,,,0.00,meteobridge,2013-09-14 10:47:00,
2013-09-14 06:58:00,53.2,52.7,30.05,South,180,0.0,0.0,98,0.00,,,0.00,meteobridge,2013-09-14 10:58:00,
2013-09-14 07:08:00,53.2,52.7,30.05,South,180,0.0,0.0,98,0.00,,,0.00,meteobridge,2013-09-14 11:08:00,
2013-09-14 07:22:00,53.4,52.9,30.06,South,180,0.0,-999.0,98,0.00,,,0.00,meteobridge,2013-09-14 11:22:00,
2013-09-14 07:33:00,53.2,52.7,30.06,South,180,0.0,0.0,98,0.00,,,0.00,meteobridge,2013-09-14 11:33:00,
2013-09-14 07:43:00,53.2,52.7,30.06,South,180,0.0,0.0,98,0.00,,,0.00,meteobridge,2013-09-14 11:43:00,
2013-09-14 07:53:00,53.6,52.7,30.07,South,180,0.0,0.0,97,0.00,,,0.00,meteobridge,2013-09-14 11:53:00,
2013-09-14 08:03:00,53.8,52.9,30.07,South,180,0.0,0.0,97,0.00,,,0.00,meteobridge,2013-09-14 12:03:00,
2013-09-14 08:14:00,55.0,54.1,30.08,South,180,0.0,0.0,97,0.00,,,0.00,meteobridge,2013-09-14 12:14:00,
2013-09-14 08:24:00,56.3,55.8,30.08,South,180,0.0,-999.0,98,0.00,,,0.00,meteobridge,2013-09-14 12:24:00,
2013-09-14 08:36:00,60.8,59.0,30.09,South,180,0.0,-999.0,94,0.00,,,0.00,meteobridge,2013-09-14 12:36:00,
2013-09-14 08:46:00,62.2,57.4,30.09,South,180,2.2,3.1,84,0.00,,,0.00,meteobridge,2013-09-14 12:46:00,
2013-09-14 08:58:00,63.1,56.1,30.09,South,180,1.6,-999.0,78,0.00,,,0.00,meteobridge,2013-09-14 12:58:00,
2013-09-14 09:08:00,63.7,55.2,30.09,South,180,4.5,4.5,74,0.00,,,0.00,meteobridge,2013-09-14 13:08:00,
2013-09-14 09:18:00,65.8,57.0,30.09,South,180,2.2,5.4,73,0.00,,,0.00,meteobridge,2013-09-14 13:18:00,
2013-09-14 09:29:00,66.2,55.8,30.09,South,180,10.7,10.7,69,0.00,,,0.00,meteobridge,2013-09-14 13:29:00,
2013-09-14 09:39:00,67.3,56.3,30.10,South,180,4.5,4.5,68,0.00,,,0.00,meteobridge,2013-09-14 13:39:00,
2013-09-14 09:49:00,66.7,55.0,30.10,South,180,9.2,12.1,66,0.00,,,0.00,meteobridge,2013-09-14 13:49:00,
2013-09-14 10:01:00,67.8,56.1,30.10,West,270,3.1,-999.0,66,0.00,,,0.00,meteobridge,2013-09-14 14:01:00,
2013-09-14 10:12:00,68.2,55.6,30.11,South,180,5.4,7.6,64,0.00,,,0.00,meteobridge,2013-09-14 14:12:00,
2013-09-14 10:22:00,69.1,56.5,30.11,South,180,10.7,10.7,64,0.00,,,0.00,meteobridge,2013-09-14 14:22:00,
2013-09-14 10:34:00,69.4,56.7,30.11,South,180,7.6,-999.0,64,0.00,,,0.00,meteobridge,2013-09-14 14:34:00,
2013-09-14 10:44:00,71.4,57.7,30.11,South,180,2.2,2.2,62,0.00,,,0.00,meteobridge,2013-09-14 14:44:00,
2013-09-14 10:54:00,71.8,57.6,30.12,SE,135,3.1,3.1,61,0.00,,,0.00,meteobridge,2013-09-14 14:54:00,
2013-09-14 11:05:00,71.8,56.7,30.12,East,90,8.3,8.3,59,0.00,,,0.00,meteobridge,2013-09-14 15:05:00,
2013-09-14 11:18:00,72.3,56.7,30.12,NW,315,14.5,-999.0,58,0.00,,,0.00,meteobridge,2013-09-14 15:18:00,
2013-09-14 11:29:00,73.2,58.1,30.12,SE,135,6.9,-999.0,59,0.00,,,0.00,meteobridge,2013-09-14 15:29:00,
2013-09-14 11:39:00,72.9,56.7,30.12,South,180,8.3,8.3,57,0.00,,,0.00,meteobridge,2013-09-14 15:39:00,
2013-09-14 11:50:00,72.7,56.5,30.12,East,90,9.2,9.2,57,0.00,,,0.00,meteobridge,2013-09-14 15:50:00,
2013-09-14 12:00:00,73.6,57.9,30.12,East,90,6.9,6.9,58,0.00,,,0.00,meteobridge,2013-09-14 16:00:00,
2013-09-14 12:10:00,72.7,57.0,30.12,SE,135,7.6,-999.0,58,0.00,,,0.00,meteobridge,2013-09-14 16:10:00,
2013-09-14 12:20:00,74.8,59.0,30.12,South,180,1.6,3.1,58,0.00,,,0.00,meteobridge,2013-09-14 16:20:00,
2013-09-14 12:32:00,74.8,59.0,30.12,South,180,6.0,-999.0,58,0.00,,,0.00,meteobridge,2013-09-14 16:32:00,
2013-09-14 12:42:00,76.5,59.5,30.12,SW,225,3.8,9.8,56,0.00,,,0.00,meteobridge,2013-09-14 16:42:00,
2013-09-14 12:52:00,76.1,58.8,30.11,East,90,4.5,4.5,55,0.00,,,0.00,meteobridge,2013-09-14 16:52:00,
2013-09-14 13:02:00,74.3,58.1,30.11,South,180,3.8,8.3,57,0.00,,,0.00,meteobridge,2013-09-14 17:02:00,
2013-09-14 13:12:00,76.5,59.5,30.11,South,180,10.7,10.7,56,0.00,,,0.00,meteobridge,2013-09-14 17:12:00,
2013-09-14 13:23:00,77.9,59.9,30.11,NW,315,3.8,5.4,54,0.00,,,0.00,meteobridge,2013-09-14 17:23:00,
2013-09-14 13:34:00,77.0,59.0,30.11,South,180,2.2,2.2,54,0.00,,,0.00,meteobridge,2013-09-14 17:34:00,
2013-09-14 13:43:00,78.6,60.1,30.11,South,180,3.1,5.4,53,0.00,,,0.00,meteobridge,2013-09-14 17:43:00,
2013-09-14 13:55:00,77.4,58.8,30.11,SE,135,3.8,3.8,53,0.00,,,0.00,meteobridge,2013-09-14 17:55:00,
2013-09-14 14:05:00,79.0,60.4,30.11,South,180,3.8,3.8,53,0.00,,,0.00,meteobridge,2013-09-14 18:05:00,
2013-09-14 14:15:00,80.6,61.3,30.10,South,180,3.1,3.1,52,0.00,,,0.00,meteobridge,2013-09-14 18:15:00,
2013-09-14 14:26:00,78.3,59.7,30.10,South,180,6.0,-999.0,53,0.00,,,0.00,meteobridge,2013-09-14 18:26:00,
2013-09-14 14:37:00,78.3,60.3,30.10,NE,45,1.6,5.4,54,0.00,,,0.00,meteobridge,2013-09-14 18:37:00,
2013-09-14 14:47:00,77.9,59.9,30.09,SW,225,3.1,3.1,54,0.00,,,0.00,meteobridge,2013-09-14 18:47:00,
2013-09-14 14:57:00,77.2,59.2,30.09,SW,225,7.6,7.6,54,0.00,,,0.00,meteobridge,2013-09-14 18:57:00,
2013-09-14 15:09:00,79.2,61.2,30.09,North,0,4.5,-999.0,54,0.00,,,0.00,meteobridge,2013-09-14 19:09:00,
2013-09-14 15:19:00,78.3,60.3,30.09,SE,135,11.4,-999.0,54,0.00,,,0.00,meteobridge,2013-09-14 19:19:00,
2013-09-14 15:29:00,78.1,60.6,30.09,West,270,0.0,1.6,55,0.00,,,0.00,meteobridge,2013-09-14 19:29:00,
2013-09-14 15:39:00,79.2,61.2,30.09,SE,135,2.2,2.2,54,0.00,,,0.00,meteobridge,2013-09-14 19:39:00,
2013-09-14 15:50:00,77.2,60.3,30.09,South,180,1.6,1.6,56,0.00,,,0.00,meteobridge,2013-09-14 19:50:00,
2013-09-14 16:00:00,78.1,60.1,30.08,North,0,3.1,3.1,54,0.00,,,0.00,meteobridge,2013-09-14 20:00:00,
2013-09-14 16:11:00,78.8,60.3,30.09,West,270,5.4,5.4,53,0.00,,,0.00,meteobridge,2013-09-14 20:11:00,
2013-09-14 16:21:00,78.1,60.1,30.09,West,270,3.1,3.1,54,0.00,,,0.00,meteobridge,2013-09-14 20:21:00,
2013-09-14 16:32:00,77.7,60.3,30.09,North,0,5.4,5.4,55,0.00,,,0.00,meteobridge,2013-09-14 20:32:00,
2013-09-14 16:44:00,32.0,-18.4,30.09,South,180,2.2,2.2,10,0.00,,,0.00,meteobridge,2013-09-14 20:44:00,
2013-09-14 16:54:00,78.4,61.0,30.09,South,180,4.5,4.5,55,0.00,,,0.00,meteobridge,2013-09-14 20:54:00,
2013-09-14 17:05:00,77.9,59.4,30.09,South,180,3.8,3.8,53,0.00,,,0.00,meteobridge,2013-09-14 21:05:00,
2013-09-14 17:15:00,78.4,61.0,30.09,North,0,3.1,3.1,55,0.00,,,0.00,meteobridge,2013-09-14 21:15:00,
2013-09-14 17:25:00,77.9,59.9,30.09,West,270,5.4,7.6,54,0.00,,,0.00,meteobridge,2013-09-14 21:25:00,
2013-09-14 17:36:00,77.4,59.9,30.09,South,180,1.6,1.6,55,0.00,,,0.00,meteobridge,2013-09-14 21:36:00,
2013-09-14 17:46:00,77.0,60.1,30.09,South,180,8.3,-999.0,56,0.00,,,0.00,meteobridge,2013-09-14 21:46:00,
2013-09-14 17:58:00,77.4,60.4,30.09,South,180,3.1,-999.0,56,0.00,,,0.00,meteobridge,2013-09-14 21:58:00,
2013-09-14 18:09:00,76.3,59.9,30.10,South,180,6.9,6.9,57,0.00,,,0.00,meteobridge,2013-09-14 22:09:00,
2013-09-14 18:19:00,75.9,60.1,30.10,South,180,2.2,2.2,58,0.00,,,0.00,meteobridge,2013-09-14 22:19:00,
2013-09-14 18:30:00,76.3,61.0,30.10,South,180,1.6,2.2,59,0.00,,,0.00,meteobridge,2013-09-14 22:30:00,
2013-09-14 18:41:00,76.1,60.8,30.10,South,180,3.1,3.8,59,0.00,,,0.00,meteobridge,2013-09-14 22:41:00,
2013-09-14 18:51:00,75.9,61.0,30.11,South,180,2.2,2.2,60,0.00,,,0.00,meteobridge,2013-09-14 22:51:00,
2013-09-14 19:01:00,75.6,60.6,30.11,South,180,3.1,-999.0,60,0.00,,,0.00,meteobridge,2013-09-14 23:01:00,
2013-09-14 19:11:00,75.0,61.2,30.10,South,180,3.1,3.8,62,0.00,,,0.00,meteobridge,2013-09-14 23:11:00,
2013-09-14 19:21:00,74.3,60.8,30.10,South,180,3.8,3.8,63,0.00,,,0.00,meteobridge,2013-09-14 23:21:00,
2013-09-14 19:32:00,73.8,60.8,30.11,South,180,2.2,2.2,64,0.00,,,0.00,meteobridge,2013-09-14 23:32:00,
2013-09-14 19:42:00,72.9,59.9,30.11,South,180,1.6,1.6,64,0.00,,,0.00,meteobridge,2013-09-14 23:42:00,
2013-09-14 19:52:00,72.3,60.3,30.11,South,180,0.0,0.0,66,0.00,,,0.00,meteobridge,2013-09-14 23:52:00,
2013-09-14 20:02:00,71.6,60.1,30.12,South,180,0.0,0.0,67,0.00,,,0.00,meteobridge,2013-09-15 00:02:00,
2013-09-14 20:13:00,70.9,59.7,30.12,South,180,0.0,0.0,68,0.00,,,0.00,meteobridge,2013-09-15 00:13:00,
2013-09-14 20:23:00,70.7,60.1,30.12,South,180,1.6,1.6,69,0.00,,,0.00,meteobridge,2013-09-15 00:23:00,
2013-09-14 20:33:00,70.5,60.3,30.13,South,180,1.6,3.8,70,0.00,,,0.00,meteobridge,2013-09-15 00:33:00,
2013-09-14 20:44:00,69.8,59.9,30.13,South,180,0.0,0.0,71,0.00,,,0.00,meteobridge,2013-09-15 00:44:00,
2013-09-14 20:55:00,69.6,60.6,30.13,South,180,1.6,1.6,73,0.00,,,0.00,meteobridge,2013-09-15 00:55:00,
2013-09-14 21:06:00,69.3,60.3,30.14,South,180,1.6,1.6,73,0.00,,,0.00,meteobridge,2013-09-15 01:06:00,
2013-09-14 21:16:00,69.1,60.1,30.14,South,180,0.0,0.0,73,0.00,,,0.00,meteobridge,2013-09-15 01:16:00,
2013-09-14 21:26:00,68.9,60.3,30.15,South,180,0.0,0.0,74,0.00,,,0.00,meteobridge,2013-09-15 01:26:00,
2013-09-14 21:37:00,68.9,59.9,30.14,South,180,0.7,0.7,73,0.00,,,0.00,meteobridge,2013-09-15 01:37:00,
2013-09-14 21:47:00,68.4,59.7,30.15,South,180,0.0,0.0,74,0.00,,,0.00,meteobridge,2013-09-15 01:47:00,
2013-09-14 21:57:00,68.7,60.1,30.15,South,180,0.0,1.6,74,0.00,,,0.00,meteobridge,2013-09-15 01:57:00,
2013-09-14 22:07:00,68.7,60.1,30.15,South,180,1.6,1.6,74,0.00,,,0.00,meteobridge,2013-09-15 02:07:00,
2013-09-14 22:18:00,68.4,59.7,30.15,South,180,0.0,0.0,74,0.00,,,0.00,meteobridge,2013-09-15 02:18:00,
2013-09-14 22:31:00,68.5,59.9,30.16,South,180,0.0,-999.0,74,0.00,,,0.00,meteobridge,2013-09-15 02:31:00,
2013-09-14 22:42:00,67.8,59.9,30.16,South,180,1.6,1.6,76,0.00,,,0.00,meteobridge,2013-09-15 02:42:00,
2013-09-14 22:52:00,67.8,59.9,30.16,South,180,0.0,-999.0,76,0.00,,,0.00,meteobridge,2013-09-15 02:52:00,
2013-09-14 23:02:00,67.8,59.9,30.16,South,180,0.0,0.0,76,0.00,,,0.00,meteobridge,2013-09-15 03:02:00,
2013-09-14 23:12:00,67.6,59.7,30.17,South,180,0.0,0.0,76,0.00,,,0.00,meteobridge,2013-09-15 03:12:00,
2013-09-14 23:22:00,68.2,59.9,30.17,South,180,2.2,2.2,75,0.00,,,0.00,meteobridge,2013-09-15 03:22:00,
2013-09-14 23:32:00,68.2,59.5,30.17,South,180,1.6,1.6,74,0.00,,,0.00,meteobridge,2013-09-15 03:32:00,
2013-09-14 23:43:00,68.0,59.7,30.17,South,180,1.6,1.6,75,0.00,,,0.00,meteobridge,2013-09-15 03:43:00,
2013-09-14 23:53:00,67.8,59.5,30.18,South,180,0.0,1.6,75,0.00,,,0.00,meteobridge,2013-09-15 03:53:00,